When you browse on this site, cookies collect data to enhance your experience and personalize the content and advertising you see.
Visit our Privacy Policy to learn more. By continuing to use the site, you agree to this use of cookies and data.
  • en Suisse
  • Liste des pays
  • À 7 jours
  • Température de l'eau
  • Carte météo
  • Widgets météo
  • user-avatar
    Se connecter

    Météo par heure à Yangzhou

    Ce jour, 29 Mai, Vendredi

    Heure Température Précipitation Vent Pression Humidité
    00:00 +25°C° 0 mm 4 m/s 757 mmHg 58%
    01:00 +25°C° 0 mm 3 m/s 757 mmHg 62%
    02:00 +24°C° 0 mm 3 m/s 756 mmHg 66%
    03:00 +24°C° 0 mm 3 m/s 756 mmHg 67%
    04:00 +24°C° 0 mm 3 m/s 756 mmHg 68%
    05:00 +24°C° 0 mm 3 m/s 756 mmHg 69%
    06:00 +26°C° 0 mm 4 m/s 756 mmHg 63%
    07:00 +27°C° 0 mm 4 m/s 756 mmHg 57%
    08:00 +28°C° 0 mm 5 m/s 756 mmHg 51%
    09:00 +29°C° 0 mm 6 m/s 757 mmHg 46%
    10:00 +30°C° 0 mm 7 m/s 757 mmHg 40%
    11:00 +31°C° 0 mm 8 m/s 757 mmHg 35%
    12:00 +28°C° 0.1 mm 8 m/s 758 mmHg 44%
    13:00 +26°C° 0.1 mm 8 m/s 758 mmHg 53%
    14:00 +22°C° 0.1 mm 8 m/s 758 mmHg 62%
    15:00 +22°C° 0.2 mm 8 m/s 758 mmHg 63%
    16:00 +22°C° 0.2 mm 7 m/s 758 mmHg 64%
    17:00 +21°C° 0.2 mm 7 m/s 758 mmHg 64%
    18:00 +21°C° 0.1 mm 7 m/s 758 mmHg 66%
    19:00 +21°C° 0.1 mm 7 m/s 758 mmHg 68%
    20:00 +20°C° 0.1 mm 7 m/s 758 mmHg 69%
    21:00 +20°C° 0 mm 7 m/s 758 mmHg 70%
    22:00 +20°C° 0 mm 7 m/s 758 mmHg 70%
    23:00 +20°C° 0 mm 7 m/s 759 mmHg 71%

    Demain, 30 Mai, Samedi

    Heure Température Précipitation Vent Pression Humidité
    00:00 +20°C° 0.1 mm 7 m/s 758 mmHg 73%
    01:00 +20°C° 0.1 mm 6 m/s 758 mmHg 75%
    02:00 +19°C° 0.1 mm 6 m/s 757 mmHg 78%
    03:00 +19°C° 0.1 mm 6 m/s 758 mmHg 78%
    04:00 +19°C° 0.1 mm 6 m/s 758 mmHg 79%
    05:00 +17°C° 0.1 mm 6 m/s 758 mmHg 80%
    06:00 +19°C° 0.1 mm 6 m/s 758 mmHg 80%
    07:00 +19°C° 0.1 mm 6 m/s 758 mmHg 79%
    08:00 +19°C° 0.1 mm 6 m/s 758 mmHg 79%
    09:00 +20°C° 0 mm 6 m/s 758 mmHg 76%
    10:00 +21°C° 0 mm 5 m/s 758 mmHg 72%
    11:00 +22°C° 0 mm 5 m/s 758 mmHg 69%
    12:00 +22°C° 0 mm 5 m/s 758 mmHg 69%
    13:00 +22°C° 0 mm 4 m/s 757 mmHg 69%
    14:00 +23°C° 0 mm 4 m/s 757 mmHg 69%
    15:00 +23°C° 0 mm 4 m/s 757 mmHg 69%
    16:00 +23°C° 0 mm 5 m/s 757 mmHg 70%
    17:00 +25°C° 0 mm 5 m/s 756 mmHg 70%
    18:00 +23°C° 0 mm 4 m/s 757 mmHg 75%
    19:00 +21°C° 0 mm 4 m/s 757 mmHg 80%
    20:00 +20°C° 0 mm 3 m/s 757 mmHg 86%
    21:00 +20°C° 0 mm 3 m/s 757 mmHg 88%
    22:00 +20°C° 0 mm 3 m/s 758 mmHg 91%
    23:00 +19°C° 0 mm 3 m/s 758 mmHg 93%

    Après-demain, 31 Mai, Dimanche

    Heure Température Précipitation Vent Pression Humidité
    00:00 +19°C° 0 mm 3 m/s 758 mmHg 94%
    01:00 +19°C° 0 mm 3 m/s 757 mmHg 95%
    02:00 +19°C° 0 mm 2 m/s 757 mmHg 96%
    03:00 +19°C° 0 mm 3 m/s 757 mmHg 96%
    04:00 +19°C° 0 mm 3 m/s 757 mmHg 96%
    05:00 +19°C° 0 mm 3 m/s 757 mmHg 96%
    06:00 +21°C° 0 mm 2 m/s 757 mmHg 89%
    07:00 +23°C° 0 mm 2 m/s 757 mmHg 82%
    08:00 +25°C° 0 mm 2 m/s 758 mmHg 74%
    09:00 +27°C° 0 mm 2 m/s 757 mmHg 66%
    10:00 +29°C° 0 mm 2 m/s 757 mmHg 57%
    11:00 +31°C° 0 mm 2 m/s 757 mmHg 49%
    12:00 +32°C° 0 mm 2 m/s 756 mmHg 46%
    13:00 +34°C° 0 mm 2 m/s 756 mmHg 42%
    14:00 +35°C° 0 mm 2 m/s 755 mmHg 39%
    15:00 +34°C° 0 mm 2 m/s 755 mmHg 39%
    16:00 +34°C° 0 mm 2 m/s 755 mmHg 40%
    17:00 +34°C° 0 mm 2 m/s 754 mmHg 41%
    18:00 +31°C° 0 mm 3 m/s 755 mmHg 45%
    19:00 +30°C° 0 mm 3 m/s 755 mmHg 50%
    20:00 +28°C° 0 mm 3 m/s 755 mmHg 54%
    21:00 +28°C° 0 mm 3 m/s 755 mmHg 54%
    22:00 +27°C° 0 mm 3 m/s 756 mmHg 53%
    23:00 +27°C° 0 mm 3 m/s 756 mmHg 53%

    1 Juin, Lundi

    Heure Température Précipitation Vent Pression Humidité
    00:00 +26°C° 0 mm 3 m/s 756 mmHg 62%
    01:00 +26°C° 0 mm 3 m/s 755 mmHg 70%
    02:00 +25°C° 0 mm 3 m/s 755 mmHg 79%
    03:00 +25°C° 0 mm 3 m/s 755 mmHg 81%
    04:00 +24°C° 0 mm 2 m/s 755 mmHg 82%
    05:00 +24°C° 0 mm 2 m/s 755 mmHg 84%
    06:00 +25°C° 0 mm 2 m/s 755 mmHg 78%
    07:00 +27°C° 0 mm 2 m/s 756 mmHg 72%
    08:00 +29°C° 0 mm 2 m/s 756 mmHg 65%
    09:00 +31°C° 0 mm 3 m/s 756 mmHg 56%
    10:00 +34°C° 0 mm 3 m/s 756 mmHg 47%
    11:00 +35°C° 0 mm 4 m/s 755 mmHg 38%
    12:00 +36°C° 0 mm 4 m/s 755 mmHg 35%
    13:00 +37°C° 0 mm 4 m/s 754 mmHg 33%
    14:00 +38°C° 0 mm 4 m/s 754 mmHg 30%
    15:00 +37°C° 0 mm 4 m/s 753 mmHg 33%
    16:00 +37°C° 0 mm 5 m/s 752 mmHg 35%
    17:00 +36°C° 0 mm 5 m/s 752 mmHg 37%
    18:00 +35°C° 0 mm 5 m/s 752 mmHg 43%
    19:00 +33°C° 0 mm 5 m/s 752 mmHg 49%
    20:00 +30°C° 0 mm 4 m/s 752 mmHg 55%
    21:00 +29°C° 0 mm 4 m/s 753 mmHg 59%
    22:00 +29°C° 0 mm 4 m/s 753 mmHg 63%
    23:00 +28°C° 0 mm 4 m/s 753 mmHg 67%

    2 Juin, Mardi

    Heure Température Précipitation Vent Pression Humidité
    00:00 +28°C° 0 mm 4 m/s 753 mmHg 68%
    01:00 +27°C° 0 mm 4 m/s 753 mmHg 69%
    02:00 +27°C° 0 mm 4 m/s 752 mmHg 71%
    03:00 +26°C° 0 mm 4 m/s 752 mmHg 72%
    04:00 +26°C° 0 mm 4 m/s 752 mmHg 73%
    05:00 +25°C° 0 mm 3 m/s 752 mmHg 74%
    06:00 +27°C° 0 mm 4 m/s 752 mmHg 68%
    07:00 +29°C° 0 mm 4 m/s 752 mmHg 62%
    08:00 +30°C° 0 mm 4 m/s 753 mmHg 56%
    09:00 +33°C° 0 mm 4 m/s 753 mmHg 49%
    10:00 +35°C° 0 mm 4 m/s 753 mmHg 43%
    11:00 +37°C° 0 mm 4 m/s 753 mmHg 37%
    12:00 +38°C° 0 mm 4 m/s 752 mmHg 35%
    13:00 +39°C° 0 mm 3 m/s 751 mmHg 33%
    14:00 +39°C° 0 mm 3 m/s 751 mmHg 31%
    15:00 +39°C° 0 mm 3 m/s 751 mmHg 32%
    16:00 +40°C° 0 mm 4 m/s 751 mmHg 33%
    17:00 +38°C° 0 mm 4 m/s 750 mmHg 34%
    18:00 +36°C° 0.1 mm 4 m/s 751 mmHg 40%
    19:00 +35°C° 0.1 mm 4 m/s 751 mmHg 45%
    20:00 +33°C° 0.1 mm 5 m/s 751 mmHg 51%
    21:00 +32°C° 0 mm 4 m/s 751 mmHg 55%
    22:00 +30°C° 0 mm 3 m/s 752 mmHg 59%
    23:00 +30°C° 0 mm 2 m/s 752 mmHg 64%

    3 Juin, Mercredi

    Heure Température Précipitation Vent Pression Humidité
    00:00 +29°C° 0 mm 2 m/s 751 mmHg 66%
    01:00 +29°C° 0 mm 2 m/s 751 mmHg 69%
    02:00 +28°C° 0 mm 2 m/s 751 mmHg 72%
    03:00 +28°C° 0 mm 2 m/s 751 mmHg 74%
    04:00 +27°C° 0 mm 2 m/s 751 mmHg 77%
    05:00 +27°C° 0 mm 3 m/s 751 mmHg 79%
    06:00 +28°C° 0 mm 3 m/s 751 mmHg 73%
    07:00 +29°C° 0 mm 4 m/s 751 mmHg 66%
    08:00 +30°C° 0 mm 4 m/s 751 mmHg 60%
    09:00 +33°C° 0 mm 4 m/s 751 mmHg 53%
    10:00 +35°C° 0 mm 4 m/s 751 mmHg 46%
    11:00 +37°C° 0 mm 4 m/s 751 mmHg 38%
    12:00 +38°C° 0 mm 4 m/s 750 mmHg 35%
    13:00 +40°C° 0 mm 4 m/s 750 mmHg 32%
    14:00 +41°C° 0 mm 4 m/s 749 mmHg 28%
    15:00 +40°C° 0 mm 4 m/s 749 mmHg 30%
    16:00 +40°C° 0 mm 4 m/s 749 mmHg 31%
    17:00 +38°C° 0 mm 4 m/s 748 mmHg 33%
    18:00 +36°C° 0.2 mm 4 m/s 749 mmHg 40%
    19:00 +34°C° 0.2 mm 5 m/s 749 mmHg 47%
    20:00 +30°C° 0.2 mm 5 m/s 750 mmHg 55%
    21:00 +30°C° 0 mm 5 m/s 750 mmHg 56%
    22:00 +29°C° 0 mm 5 m/s 750 mmHg 57%
    23:00 +29°C° 0 mm 5 m/s 751 mmHg 58%
    Voir plus